STARLINK-11393, 62016

Orbit data source: Space-Track

STARLINK-11393, 62016 is a payload satellite owned by SpaceX/Seattle (US) in LEO that was launched on Mon, 18 Nov 2024 UTC via an FALCON 9 launch vehicle from the Air Force Western Test Range (AFWTR). Payload-class satellites include a variety of spacecraft equipped with specific instruments for various scientific and technological missions. These include communications satellites like Starlink; space stations such as the ISS; scientific satellites like the Hubble; Earth observation satellites from companies like Planet Labs, Umbra, and HawkEye 360; GPS; miniature CubeSats for education and research; and military/defense satellites.

Loading next visibility...
Identifier
62016, 2024-213J
Orbit
LEO
Last TLE update
1 day ago
Origin
Manufacturer
SpaceX/Seattle
Mission
Operational Commercial Communications
Bus & Motor
STARLINK V2M, Unknown motor
Mass
730 kg wet, ~700 kg dry
Launch date (UTC)
2024-11-18 (8 months ago)
Launch vehicle
FALCON 9
Launch site
Air Force Western Test Range (AFWTR)
Object type
Payload
Rocket body
Debris
Shape & HBR
Box + 2 Pan, 29 m
Radar Cross Section
36.964 m², Large (>1 m²)

Expand to show TLE details & history

TLE from 1 day ago
0 STARLINK-11393
1 62016U 24213J   25188.14636295  .00165370  00000-0  13422-2 0  9993
2 62016  53.1567 171.4202 0001188  75.8990 284.2160 15.69720627 36352
Epoch: 2025-07-07T03:30Z
TLE epoch observation values (Epoch: 2025-07-07T03:30:45.758Z)
Latitude
-0.00003°
Longitude
-166.63037°
Altitude
360.415 km
Speed
7.694 km/s
True Right ascension
11h 25m 40s
True Declination
0° 00' 00"
Sunlit
Object was in daylight at epoch
Visualization orbit readout
Latitude
-45.54139°
Longitude
57.22149°
Altitude
374.825 km
Speed
7.684 km/s
Apparent Right ascension
04h 31m 07s
Apparent Declination
-47° 18' 38"
Sunlit
Object is in daylight
Visualization observer readout
Local Sidereal Time
18:36:22
Azimuth
118.593° SE
Elevation
-66.339°
Doppler factor
1
Orbital elements
Apogee altitude
360.758 km
Perigee altitude
359.157 km
Semi-major axis
6,738.095 km
Eccentricity
0.00012
Inclination
53.1567°
RAAN
171.4202°
Arg. of periapsis
75.899°
True anomaly
Unknown
Mean anomaly
284.216°
Eccentric anomaly
Unknown
Mean motion
3.92408 °/min
Orbital period
91.74 mins
BSTAR
0.0013422
Loading maneuver chart data...
Loading SW <> Apogee altitude chart data...
Loading historical data...
Loading historical data...
Loading historical data...
Loading historical data...
Loading historical data...
Loading historical data...
Loading historical data...

STARLINK-11393 Visibility forecast

Observer location: undefined°, undefined°

Span
Click to sort rows by Start time (UTC) header in descending order
Start Az.
Max El. time (UTC)
Max El. Az.
Max El.
End time (UTC)
End Az.
4 mins2025-07-08 07:28:58.373Z335.927° NNW2025-07-08 07:30:58.373Z27.454° NE24.064°2025-07-08 07:32:58.373Z84.181° E
|